Wind_Speed
16 15 15 15 15 15 16 16 15 15 15 16 16 16 16 16 16 16 16 15 15 15 15 15 15 15 15 15 16 16 17 17 17 17 17 18 18 18 19 19 19 19 20
17 16 16 16 16 16 16 16 16 15 15 16 16 16 17 17 17 17 17 17 17 17 17 17 17 17 17 17 17 17 18 18 19 19 19 19 20 20 20 20 20 20 21
18 17 17 17 17 17 17 17 17 17 17 17 17 17 17 17 18 19 19 19 19 19 19 19 19 19 19 19 19 19 19 20 20 20 20 20 20 20 20 20 21 21 21
18 17 17 17 18 17 17 17 17 18 18 18 18 18 18 18 18 19 20 20 20 20 21 21 21 21 21 21 21 22 21 21 21 21 21 21 21 20 20 21 21 22 22
19 18 18 18 18 17 17 17 17 18 18 18 19 19 19 19 19 19 20 21 21 21 22 22 21 21 22 22 23 23 23 22 22 21 21 21 21 21 21 21 22 23 23
22 21 20 20 19 18 18 18 17 18 18 19 19 19 19 19 19 19 19 20 21 22 22 22 21 22 22 23 23 24 23 23 22 22 22 22 21 22 22 23 23 24 25
25 24 24 23 21 20 20 19 19 19 19 19 19 19 19 19 19 18 18 19 20 20 21 21 21 21 22 23 24 24 24 23 23 22 22 23 23 23 23 24 25 25 26
27 27 26 26 24 23 22 22 21 20 20 19 19 19 19 19 18 18 18 18 19 19 20 20 21 21 22 23 23 23 23 23 23 23 23 24 24 25 25 26 26 26 27
28 28 28 27 26 25 25 24 23 22 21 20 20 20 20 19 19 19 19 19 19 19 20 20 20 21 22 22 23 23 23 24 24 24 25 25 26 27 27 28 28 28 27
29 29 29 29 28 27 27 26 25 24 23 22 21 21 21 21 20 20 20 20 20 20 20 20 20 21 22 22 22 23 24 25 26 27 27 28 29 29 30 30 30 30 29
29 29 29 29 29 28 28 28 27 26 25 24 24 23 22 22 22 22 21 22 22 22 21 21 22 22 22 23 23 24 25 27 28 29 30 31 32 32 32 33 33 32 31
29 29 29 29 29 29 29 28 28 27 27 26 25 25 24 23 23 23 23 23 23 23 23 23 23 23 23 23 24 24 25 27 28 30 31 33 33 34 34 35 34 33 32
30 29 29 29 29 29 29 29 29 28 28 28 27 26 25 25 25 24 24 24 24 24 24 24 24 24 24 24 24 25 25 27 28 30 31 33 33 34 35 35 35 34 33
29 29 29 29 29 29 29 29 29 29 29 29 28 27 27 27 26 26 25 25 25 25 25 25 25 25 25 25 25 25 26 27 28 29 30 31 32 32 33 34 34 33 32
29 30 31 31 30 30 30 30 30 30 30 30 30 28 28 27 27 27 26 26 26 26 26 26 26 26 26 26 27 27 28 28 28 29 29 30 31 31 32 33 33 32 32
30 32 33 34 33 32 31 31 31 32 32 32 31 29 28 28 27 27 27 27 27 27 27 27 28 27 27 27 27 28 28 29 29 29 30 31 31 32 32 32 32 33 33
31 32 34 35 36 35 34 33 33 33 33 33 32 31 30 29 28 28 27 27 28 28 28 28 28 28 28 28 28 29 29 29 29 30 31 31 32 32 33 33 33 33 34
33 34 35 37 38 37 37 36 36 36 36 35 34 33 32 30 30 29 29 29 29 29 29 29 29 29 29 29 30 29 29 30 30 31 31 32 32 32 32 33 33 33 34
36 36 37 39 39 40 40 40 40 39 39 38 37 35 34 33 32 32 31 31 30 30 30 30 30 30 31 31 31 31 31 31 32 32 33 33 33 32 32 32 33 33 34
39 39 39 41 41 42 42 43 42 42 41 40 39 38 38 37 36 35 34 33 33 32 32 32 32 32 33 33 33 33 33 34 34 35 35 34 34 34 33 33 33 34 34
42 42 42 42 43 44 44 44 44 43 43 43 43 42 42 40 39 38 37 36 36 35 35 35 34 34 35 35 35 35 35 36 36 36 36 36 35 35 35 35 35 35 35
44 44 44 44 45 46 46 46 45 45 45 46 46 46 44 43 41 41 40 40 39 39 38 38 37 37 37 37 37 38 37 37 37 37 37 37 36 36 37 37 37 37 37
46 46 46 46 47 48 48 49 48 48 47 47 47 46 45 45 45 44 43 43 43 42 41 40 40 40 39 39 39 40 39 39 39 39 38 38 38 39 39 39 39 39 40
47 48 48 48 49 50 51 51 51 50 50 49 49 49 48 48 48 48 47 46 46 45 44 43 43 42 42 42 42 42 42 41 41 40 41 41 41 41 41 42 42 42 43
47 48 49 50 51 52 53 54 54 54 53 52 52 52 51 51 51 50 50 50 49 48 47 47 46 46 46 46 46 45 44 44 43 43 43 43 44 44 44 44 45 45 46
46 48 49 50 52 53 55 56 57 58 58 58 57 56 55 55 54 53 53 53 52 51 51 50 50 50 50 50 49 48 47 47 46 46 45 45 45 46 46 47 48 48 48
Wind_Direction
255 256 259 262 265 268 271 273 275 276 276 276 276 276 276 275 275 277 281 286 290 291 289 286 285 283 281 279 278 279 279 280 281 283 284 285 287 288 290 292 293 293 294
258 256 258 262 265 268 271 274 277 279 280 280 279 278 277 275 274 274 275 279 283 285 285 283 282 280 279 277 277 276 276 277 278 280 282 283 286 287 289 290 291 293 293
258 259 259 261 264 267 271 275 278 281 283 284 284 283 281 279 277 276 275 276 279 281 283 283 281 280 279 278 277 276 275 275 275 277 280 282 284 286 287 289 291 292 294
258 258 259 262 265 268 272 276 280 283 284 286 287 287 286 285 283 281 279 278 279 280 282 283 282 280 279 277 276 276 275 275 276 278 280 281 282 284 286 288 291 293 295
258 259 260 262 266 269 274 278 281 284 285 287 288 289 289 289 290 288 285 282 281 281 283 283 283 281 280 278 276 276 276 276 277 278 279 280 281 283 285 288 291 294 296
260 262 263 264 267 270 274 277 281 283 285 287 289 291 292 293 294 294 291 287 284 283 283 283 283 282 281 279 278 277 277 276 277 278 279 280 281 283 286 288 290 293 295
261 264 267 268 269 271 272 274 277 281 285 288 290 291 292 294 294 294 294 292 290 287 285 284 282 281 281 280 279 277 276 276 276 277 278 279 281 284 287 289 291 294 295
262 264 268 270 271 272 272 273 275 278 282 285 288 290 291 292 292 293 293 292 291 289 286 283 282 280 279 279 278 276 275 275 274 273 275 277 280 283 286 290 293 295 297
260 262 265 268 270 272 273 273 274 275 278 281 284 286 288 289 290 290 291 291 290 288 285 282 281 279 278 277 276 275 273 271 270 271 273 275 279 282 286 289 292 295 296
258 260 262 265 268 271 272 273 273 274 276 279 281 283 285 287 288 288 288 288 287 286 284 281 279 278 277 275 275 273 271 270 269 269 271 274 277 281 284 287 290 292 294
255 257 260 263 265 268 270 272 273 274 276 278 280 282 283 285 286 286 286 285 285 284 283 281 279 278 277 276 276 275 273 271 270 270 272 275 278 280 283 285 287 290 291
253 255 257 260 262 264 267 269 271 273 275 277 279 281 282 283 284 284 284 284 282 281 281 280 279 279 278 278 277 277 277 276 275 275 276 277 278 280 282 284 285 287 288
251 254 256 258 260 262 263 265 268 271 273 275 277 279 280 281 282 282 282 282 281 280 280 279 279 279 279 281 281 281 281 281 280 280 280 280 280 280 281 283 284 286 287
251 254 256 257 258 259 260 262 264 267 270 272 273 276 277 279 279 280 280 280 279 279 279 279 279 280 281 282 283 284 285 285 285 285 284 284 283 283 283 284 285 285 285
250 252 253 253 253 254 257 260 262 263 265 267 270 272 274 275 277 277 278 278 278 278 278 279 280 280 281 282 284 285 285 286 286 286 287 287 286 285 285 286 286 285 285
249 250 251 252 253 253 254 257 259 261 263 266 268 269 270 272 274 275 276 275 275 276 277 279 279 280 281 282 283 284 285 286 287 287 288 289 288 287 286 286 286 285 284
248 249 251 253 255 255 255 256 258 261 263 265 266 267 268 270 271 273 274 273 273 274 276 277 278 279 280 282 283 284 285 286 288 289 290 290 290 289 287 286 285 284 284
248 248 249 251 254 255 256 256 257 258 260 262 264 266 267 268 269 270 271 272 273 273 274 275 277 279 280 282 282 283 284 286 288 290 291 291 291 290 289 287 285 284 284
250 249 249 250 252 254 255 256 257 258 259 261 263 265 266 267 267 268 270 271 272 272 273 274 276 278 279 281 281 282 283 284 287 289 290 291 291 291 290 289 288 286 285
254 253 251 252 253 254 255 257 258 259 260 261 262 263 263 264 265 266 267 269 270 271 272 274 275 276 278 279 280 281 282 283 285 287 289 290 291 291 291 291 291 290 289
258 257 256 256 256 256 256 257 258 259 259 260 260 260 260 261 263 265 266 268 269 270 271 272 274 275 276 278 280 280 282 284 285 286 288 289 290 291 292 292 292 292 292
260 260 259 259 259 258 258 257 257 258 258 258 259 259 261 263 264 265 265 266 267 269 270 272 272 274 276 277 279 280 282 283 285 286 287 289 290 291 292 292 293 294 294
262 262 262 261 261 261 260 259 258 257 257 258 259 260 260 261 261 261 262 263 265 267 269 271 273 274 276 277 279 280 281 282 284 285 287 288 289 290 291 292 293 293 293
264 264 263 263 262 262 261 261 260 259 258 258 257 256 256 257 258 259 260 262 264 266 268 270 272 274 275 277 278 279 280 281 283 284 286 287 289 290 291 291 292 292 292
266 266 266 266 265 264 263 263 262 261 260 258 257 257 256 257 259 260 261 262 264 265 267 269 271 273 275 276 278 279 279 280 282 283 284 286 287 289 289 289 290 291 291
267 268 268 268 267 267 266 265 264 263 261 260 259 258 257 257 257 258 260 261 262 264 265 267 269 271 274 275 277 278 279 280 281 282 283 284 286 287 287 288 289 289 289
Height
5870 5871 5872 5872 5873 5873 5874 5874 5875 5875 5875 5876 5876 5876 5877 5877 5878 5878 5878 5878 5878 5878 5878 5878 5878 5878 5878 5879 5879 5879 5878 5878 5878 5877 5877 5877 5876 5876 5876 5875 5874 5874 5873
5868 5868 5869 5869 5870 5870 5871 5871 5872 5872 5872 5873 5873 5873 5874 5874 5875 5875 5876 5876 5876 5876 5876 5876 5876 5876 5876 5876 5876 5876 5875 5875 5875 5874 5874 5874 5873 5873 5872 5872 5871 5871 5870
5865 5866 5866 5866 5867 5867 5868 5868 5869 5869 5869 5870 5870 5870 5871 5871 5872 5872 5873 5873 5873 5873 5873 5873 5873 5873 5873 5873 5873 5872 5872 5872 5871 5871 5871 5871 5870 5870 5869 5869 5868 5868 5867
5862 5863 5863 5864 5864 5865 5865 5866 5866 5866 5867 5867 5867 5867 5867 5868 5868 5869 5869 5870 5870 5870 5870 5870 5870 5870 5870 5869 5869 5868 5868 5868 5868 5868 5868 5867 5867 5866 5866 5865 5865 5864 5864
5860 5860 5861 5861 5861 5862 5863 5863 5864 5864 5864 5864 5864 5864 5864 5865 5865 5865 5866 5866 5866 5867 5867 5867 5867 5866 5866 5866 5865 5865 5865 5865 5864 5864 5864 5864 5863 5863 5862 5862 5861 5861 5860
5857 5857 5858 5858 5859 5860 5860 5860 5861 5861 5861 5861 5861 5861 5861 5862 5862 5862 5862 5862 5863 5863 5863 5863 5863 5862 5862 5862 5861 5861 5861 5861 5861 5861 5860 5860 5860 5859 5859 5858 5858 5857 5856
5853 5854 5855 5855 5856 5857 5857 5858 5858 5858 5858 5858 5858 5858 5858 5858 5858 5859 5859 5859 5859 5859 5859 5859 5859 5858 5858 5858 5858 5857 5857 5857 5857 5857 5856 5856 5856 5855 5855 5854 5854 5853 5852
5850 5850 5851 5852 5852 5853 5854 5854 5855 5855 5855 5855 5855 5855 5855 5855 5855 5855 5855 5855 5855 5855 5855 5855 5855 5854 5854 5854 5854 5853 5853 5853 5853 5853 5852 5852 5852 5851 5851 5850 5849 5848 5847
5846 5847 5847 5848 5848 5849 5850 5850 5851 5851 5852 5852 5852 5852 5852 5852 5852 5852 5852 5852 5852 5852 5851 5851 5851 5850 5850 5850 5849 5849 5849 5849 5849 5848 5848 5848 5847 5847 5846 5845 5845 5844 5843
5841 5842 5843 5843 5844 5845 5846 5846 5847 5847 5847 5848 5848 5848 5849 5848 5848 5848 5848 5848 5848 5848 5848 5847 5847 5846 5846 5845 5845 5845 5845 5844 5844 5844 5844 5843 5842 5842 5841 5841 5840 5839 5838
5836 5837 5838 5839 5840 5841 5841 5842 5842 5842 5843 5843 5844 5844 5844 5844 5844 5844 5844 5844 5844 5843 5843 5843 5842 5842 5841 5841 5840 5840 5840 5840 5839 5839 5839 5838 5837 5837 5836 5835 5835 5834 5833
5830 5831 5833 5834 5835 5836 5837 5837 5837 5838 5838 5839 5839 5839 5840 5840 5839 5839 5839 5839 5839 5838 5838 5838 5838 5837 5836 5836 5835 5835 5835 5834 5834 5833 5833 5832 5832 5831 5830 5830 5829 5828 5827
5824 5826 5828 5829 5830 5831 5832 5832 5833 5833 5833 5834 5834 5834 5834 5834 5834 5834 5834 5834 5834 5833 5833 5833 5833 5832 5832 5831 5831 5830 5830 5829 5828 5828 5827 5827 5826 5825 5824 5823 5823 5822 5821
5820 5821 5822 5823 5824 5825 5826 5827 5827 5828 5828 5828 5828 5829 5829 5829 5829 5829 5829 5829 5828 5828 5828 5828 5828 5827 5827 5826 5826 5825 5824 5824 5823 5822 5821 5820 5820 5819 5818 5817 5816 5815 5815
5815 5815 5816 5817 5818 5819 5820 5821 5822 5822 5822 5822 5823 5823 5823 5823 5823 5823 5823 5823 5823 5823 5823 5822 5822 5822 5821 5821 5820 5819 5819 5818 5817 5816 5815 5814 5813 5812 5811 5810 5809 5808 5808
5809 5809 5809 5810 5812 5813 5814 5815 5815 5816 5816 5816 5817 5817 5817 5817 5817 5817 5817 5817 5817 5817 5817 5817 5816 5816 5815 5815 5814 5813 5813 5812 5811 5810 5809 5808 5807 5806 5805 5804 5803 5801 5800
5803 5803 5804 5804 5805 5806 5807 5808 5809 5809 5810 5810 5811 5811 5811 5811 5811 5811 5811 5811 5811 5811 5811 5811 5810 5810 5809 5809 5808 5807 5806 5806 5805 5804 5803 5801 5800 5799 5798 5797 5795 5794 5793
5796 5796 5797 5797 5798 5799 5800 5801 5801 5802 5802 5803 5804 5804 5805 5805 5805 5805 5805 5805 5805 5805 5805 5804 5804 5804 5803 5803 5802 5801 5800 5799 5798 5797 5796 5795 5793 5792 5790 5789 5788 5787 5785
5787 5789 5789 5790 5791 5792 5793 5794 5794 5794 5795 5796 5797 5798 5798 5798 5798 5798 5799 5798 5798 5798 5798 5798 5798 5797 5797 5796 5796 5795 5794 5793 5792 5791 5789 5788 5786 5784 5783 5781 5780 5779 5777
5778 5780 5782 5782 5783 5784 5785 5785 5786 5787 5788 5789 5789 5790 5790 5791 5791 5791 5791 5791 5791 5791 5791 5791 5791 5790 5790 5789 5789 5788 5787 5786 5785 5783 5782 5780 5779 5777 5775 5774 5772 5771 5769
5770 5772 5773 5774 5775 5776 5776 5777 5778 5779 5780 5780 5781 5781 5781 5782 5783 5784 5784 5784 5784 5784 5784 5783 5783 5783 5782 5782 5781 5780 5779 5778 5777 5776 5774 5773 5771 5769 5767 5766 5764 5762 5760
5761 5763 5764 5765 5766 5766 5767 5768 5769 5770 5771 5771 5771 5772 5773 5774 5775 5775 5775 5775 5775 5775 5775 5775 5775 5775 5775 5774 5773 5772 5772 5771 5769 5767 5766 5764 5763 5761 5759 5757 5755 5753 5751
5753 5753 5754 5755 5756 5756 5757 5758 5759 5760 5761 5762 5763 5764 5765 5765 5765 5765 5766 5766 5766 5767 5767 5767 5767 5767 5766 5766 5765 5764 5763 5762 5761 5759 5757 5755 5754 5752 5750 5748 5746 5744 5742
5743 5744 5744 5745 5745 5745 5746 5747 5748 5749 5751 5752 5753 5753 5753 5753 5754 5754 5755 5756 5757 5757 5758 5758 5757 5757 5757 5756 5755 5755 5754 5752 5751 5750 5748 5746 5744 5742 5740 5738 5736 5734 5731
5734 5734 5734 5734 5734 5734 5734 5734 5735 5737 5739 5739 5740 5741 5742 5742 5743 5744 5745 5746 5747 5748 5748 5748 5748 5748 5747 5747 5746 5744 5743 5742 5741 5740 5738 5736 5734 5732 5730 5727 5725 5723 5720
5724 5723 5723 5723 5722 5722 5721 5722 5722 5723 5724 5725 5726 5727 5729 5730 5731 5732 5733 5735 5736 5737 5737 5738 5738 5737 5737 5736 5735 5735 5733 5732 5730 5729 5728 5726 5723 5721 5718 5716 5713 5710 5708